FW7817 Weather Reports


time (UTC)temp
F
wind
direction
speed
knots
gust
knots
rain 1hr
in
rain 24hr
in
rain mn
in
humidity
%
barometer
mb
20260507180503 68 182 1.7 4.3 0.00 0.00 0.00 55 1014.7
20260507175452 67 262 2.6 11.3 0.00 0.00 0.00 57 1015.0
20260507174943 66 225 3.5 11.3 0.00 0.00 0.00 53 1015.1
20260507174438 66 259 3.5 11.3 0.00 0.00 0.00 55 1015.1
20260507173932 66 211 2.6 11.3 0.00 0.00 0.00 55 1015.2
20260507173426 67 209 1.7 7.8 0.00 0.00 0.00 55 1015.2
20260507172921 66 221 2.6 8.7 0.00 0.00 0.00 54 1015.3
20260507172413 66 222 2.6 8.7 0.00 0.00 0.00 57 1015.5
20260507171909 65 268 2.6 10.4 0.00 0.00 0.00 55 1015.6
20260507171402 66 251 2.6 11.3 0.00 0.00 0.00 54 1015.7
20260507170857 65 254 3.5 11.3 0.00 0.00 0.00 56 1015.8
20260507165845 65 186 2.6 11.3 0.00 0.00 0.00 54 1016.0
20260507165343 65 250 1.7 11.3 0.00 0.00 0.00 55 1016.1
20260507164842 65 263 2.6 10.4 0.00 0.00 0.00 56 1016.1
20260507164343 65 246 3.5 13.9 0.00 0.00 0.00 55 1016.1
20260507163842 65 281 3.5 16.5 0.00 0.00 0.00 56 1016.1
20260507163342 65 252 4.3 16.5 0.00 0.00 0.00 54 1016.2
20260507162841 65 236 2.6 10.4 0.00 0.00 0.00 54 1016.3
20260507162341 65 224 1.7 9.6 0.00 0.00 0.00 56 1016.2
20260507161341 65 271 2.6 9.6 0.00 0.00 0.00 55 1016.6
20260507160841 64 284 2.6 9.6 0.00 0.00 0.00 56 1016.6
20260507160341 64 246 2.6 8.7 0.00 0.00 0.00 57 1016.6
20260507155843 64 195 2.6 13.9 0.00 0.00 0.00 56 1016.7
20260507155343 63 238 3.5 16.5 0.00 0.00 0.00 55 1016.7
20260507154842 63 281 3.5 16.5 0.00 0.00 0.00 56 1016.7
20260507154342 63 246 2.6 9.6 0.00 0.00 0.00 57 1016.9
20260507153842 63 245 2.6 9.6 0.00 0.00 0.00 56 1016.7
20260507153342 63 192 2.6 11.3 0.00 0.00 0.00 58 1016.7
20260507152842 63 257 2.6 11.3 0.00 0.00 0.00 59 1016.7
20260507151842 62 263 2.6 10.4 0.00 0.00 0.00 59 1016.9
20260507150842 62 277 2.6 11.3 0.00 0.00 0.00 60 1017.1
20260507150342 62 240 2.6 10.4 0.00 0.00 0.00 59 1017.2
20260507145841 61 237 2.6 10.4 0.00 0.00 0.00 60 1017.1
20260507145341 61 265 2.6 10.4 0.00 0.00 0.00 60 1017.3
20260507144841 61 260 2.6 10.4 0.00 0.00 0.00 62 1017.3
20260507143843 60 213 1.7 7.0 0.00 0.00 0.00 61 1017.4
20260507143340 60 227 1.7 7.8 0.00 0.00 0.00 63 1017.3
20260507141828 58 240 2.6 9.6 0.00 0.00 0.00 65 1017.4
20260507141321 58 238 2.6 13.0 0.00 0.00 0.00 64 1017.3
20260507140815 58 238 3.5 13.0 0.00 0.00 0.00 65 1017.4
20260507135808 57 235 2.6 8.7 0.00 0.00 0.00 68 1017.5
20260507135306 56 257 2.6 8.7 0.00 0.00 0.00 66 1017.4
20260507134806 56 227 2.6 7.0 0.00 0.00 0.00 68 1017.5
20260507134306 56 273 1.7 8.7 0.00 0.00 0.00 69 1017.4
20260507133306 54 238 1.7 7.0 0.00 0.00 0.00 72 1017.5
20260507132807 53 254 1.7 7.0 0.00 0.00 0.00 74 1017.6
20260507131805 51 252 1.7 6.1 0.00 0.00 0.00 78 1017.5
20260507131305 50 269 1.7 6.1 0.00 0.00 0.00 81 1017.6
20260507130805 49 233 0.9 3.5 0.00 0.00 0.00 83 1017.6
20260507130305 48 254 0.9 3.5 0.00 0.00 0.00 85 1017.6
20260507125805 47 244 0.0 1.7 0.00 0.00 0.00 85 1017.7
20260507125306 47 244 0.0 2.6 0.00 0.00 0.00 85 1017.7
20260507124801 46 244 0.9 2.6 0.00 0.00 0.00 85 1017.5
20260507124259 46 262 0.0 2.6 0.00 0.00 0.00 85 1017.6
20260507123758 46 226 0.0 0.9 0.00 0.00 0.00 84 1017.5
20260507123253 46 226 0.0 0.9 0.00 0.00 0.00 84 1017.6
20260507122747 45 237 0.0 0.9 0.00 0.00 0.00 84 1017.6
20260507122240 45 246 0.0 1.7 0.00 0.00 0.00 84 1017.6
20260507121735 45 247 0.0 2.6 0.00 0.00 0.00 84 1017.6
20260507121228 45 247 0.0 2.6 0.00 0.00 0.00 83 1017.7
20260507120723 45 243 0.0 0.0 0.00 0.00 0.00 83 1017.7
20260507120217 45 243 0.0 0.9 0.00 0.00 0.00 83 1017.7
20260507115711 45 243 0.0 1.7 0.00 0.00 0.00 83 1017.6
20260507115205 45 245 0.0 1.7 0.00 0.00 0.00 83 1017.6
20260507114658 45 246 0.0 2.6 0.00 0.00 0.00 83 1017.6
20260507114152 45 232 0.0 2.6 0.00 0.00 0.00 82 1017.6
20260507113647 46 252 0.0 2.6 0.00 0.00 0.00 82 1017.6
20260507113141 46 252 0.0 2.6 0.00 0.00 0.00 82 1017.6
20260507112129 46 250 0.0 1.7 0.00 0.00 0.00 82 1017.6
20260507111623 46 248 0.9 3.5 0.00 0.00 0.00 81 1017.6
20260507111117 46 248 0.9 3.5 0.00 0.00 0.00 81 1017.6
20260507110611 46 260 0.9 3.5 0.00 0.00 0.00 81 1017.6
20260507110106 46 251 0.0 1.7 0.00 0.00 0.00 81 1017.6
20260507105600 46 252 0.9 3.5 0.00 0.00 0.00 80 1017.6
20260507105053 46 250 0.9 3.5 0.00 0.00 0.00 80 1017.6
20260507104040 46 256 0.9 2.6 0.00 0.00 0.00 80 1017.7
20260507103536 46 248 0.9 2.6 0.00 0.00 0.00 80 1017.6
20260507103030 46 248 0.9 3.5 0.00 0.00 0.00 80 1017.7
20260507102523 47 247 0.9 5.2 0.00 0.00 0.00 79 1017.7
20260507102016 47 252 0.9 5.2 0.00 0.00 0.00 79 1017.7
20260507101511 47 259 0.9 3.5 0.00 0.00 0.00 79 1017.8
20260507101005 47 247 0.9 3.5 0.00 0.00 0.00 78 1017.8
20260507100458 47 252 0.9 3.5 0.00 0.00 0.00 78 1017.9
20260507095953 47 244 0.9 2.6 0.00 0.00 0.00 78 1017.8
20260507095447 47 243 0.9 2.6 0.00 0.00 0.00 78 1017.8
20260507094941 47 240 0.9 2.6 0.00 0.00 0.00 77 1017.9
20260507094435 47 234 0.9 2.6 0.00 0.00 0.00 77 1017.9
20260507093928 47 257 0.9 3.5 0.00 0.00 0.00 76 1017.9
20260507093423 47 252 0.9 3.5 0.00 0.00 0.00 76 1017.9
20260507092917 48 250 0.9 2.6 0.00 0.00 0.00 76 1017.9
20260507091905 48 257 0.9 5.2 0.00 0.00 0.00 75 1017.8
20260507091359 48 263 0.9 5.2 0.00 0.00 0.00 75 1018.1
20260507090852 48 234 0.0 2.6 0.00 0.00 0.00 75 1018.1
20260507085848 48 229 0.9 7.0 0.00 0.00 0.00 74 1018.2
20260507085344 48 256 0.9 7.0 0.00 0.00 0.00 74 1018.1
20260507084844 48 264 0.9 3.5 0.00 0.00 0.00 74 1018.1
20260507084346 49 263 0.9 8.7 0.00 0.00 0.00 74 1018.2
20260507082841 48 223 0.9 3.5 0.00 0.00 0.00 73 1018.3
20260507081340 48 240 0.9 6.1 0.00 0.00 0.00 73 1018.5
20260507080342 49 242 0.9 4.3 0.00 0.00 0.00 73 1018.4
20260507075841 49 261 1.7 4.3 0.00 0.00 0.00 72 1018.3
20260507075340 49 234 1.7 5.2 0.00 0.00 0.00 72 1018.4
20260507074841 49 229 1.7 5.2 0.00 0.00 0.00 72 1018.4
20260507074342 49 264 0.9 5.2 0.00 0.00 0.00 72 1018.4
20260507073341 49 221 0.9 2.6 0.00 0.00 0.00 71 1018.4
20260507072840 49 215 0.9 3.5 0.00 0.00 0.00 71 1018.4
20260507072341 49 252 0.9 3.5 0.00 0.00 0.00 71 1018.5
20260507071842 49 260 0.9 3.5 0.00 0.00 0.00 70 1018.5
20260507070340 49 242 0.9 2.6 0.00 0.00 0.00 70 1018.6
20260507065840 50 243 0.9 2.6 0.00 0.00 0.00 70 1018.7
20260507065340 50 243 0.9 4.3 0.00 0.00 0.00 69 1018.7
20260507064840 50 247 0.9 4.3 0.00 0.00 0.00 69 1018.8
20260507064339 50 239 0.9 3.5 0.00 0.00 0.00 69 1018.8
20260507063838 50 249 0.9 2.6 0.00 0.00 0.00 69 1018.9
20260507063339 50 246 0.9 2.6 0.00 0.00 0.00 69 1018.9
20260507062840 50 241 0.9 5.2 0.00 0.00 0.00 69 1018.9
20260507062337 51 239 0.9 5.2 0.00 0.00 0.00 68 1018.9
20260507061330 51 242 0.9 3.5 0.00 0.00 0.00 68 1019.1
20260507060824 51 232 0.9 4.3 0.00 0.00 0.00 68 1019.1
20260507060319 51 250 0.9 4.3 0.00 0.00 0.00 68 1019.1
20260507055812 51 225 0.9 3.5 0.00 0.00 0.00 68 1019.2
20260507055307 51 222 0.9 6.1 0.00 0.00 0.00 67 1019.2
20260507054800 51 241 0.9 6.1 0.00 0.00 0.00 67 1019.2
20260507054254 51 253 0.9 4.3 0.00 0.00 0.00 66 1019.1
20260507053748 51 218 0.9 4.3 0.00 0.00 0.00 66 1019.1
20260507053241 51 227 0.0 3.5 0.00 0.00 0.00 66 1019.1
20260507052737 51 227 0.0 3.5 0.00 0.00 0.00 66 1019.1
20260507052230 50 225 0.9 2.6 0.00 0.00 0.00 66 1019.3
20260507051724 50 224 0.9 2.6 0.00 0.00 0.00 66 1019.1
20260507051218 50 218 0.9 2.6 0.00 0.00 0.00 66 1019.1
20260507050712 50 249 0.0 2.6 0.00 0.00 0.00 67 1019.1
20260507050206 50 250 0.9 2.6 0.00 0.00 0.00 67 1019.1
20260507045702 50 256 0.9 2.6 0.00 0.00 0.00 67 1019.2
20260507045154 50 255 0.9 2.6 0.00 0.00 0.00 67 1019.3
20260507044143 49 265 0.0 3.5 0.00 0.00 0.00 68 1019.1
20260507043637 49 265 0.0 5.2 0.00 0.00 0.00 68 1019.1
20260507043132 49 300 0.0 1.7 0.00 0.01 0.00 68 1019.2
20260507042625 49 304 0.0 0.9 0.00 0.01 0.00 68 1019.2
20260507042119 49 304 0.0 1.7 0.00 0.01 0.00 68 1019.3
20260507041612 48 304 0.0 1.7 0.00 0.01 0.00 68 1019.3
20260507041108 48 306 0.0 0.9 0.00 0.01 0.00 69 1019.3
20260507040602 48 306 0.0 0.9 0.00 0.01 0.00 69 1019.3
20260507040054 48 306 0.0 0.9 0.00 0.02 0.00 69 1019.3
20260507035553 48 306 0.0 0.0 0.00 0.02 0.00 68 1019.3
20260507035053 48 306 0.0 0.0 0.00 0.02 0.00 68 1019.2
20260507034553 48 306 0.0 0.0 0.00 0.02 0.00 69 1019.1
20260507034053 48 306 0.0 0.0 0.00 0.03 0.00 69 1019.2
20260507033553 48 306 0.0 0.0 0.00 0.03 0.00 70 1019.1
20260507033053 48 306 0.0 0.0 0.00 0.03 0.00 70 1019.2
20260507032554 49 306 0.0 0.0 0.00 0.03 0.00 71 1019.4
20260507032054 49 306 0.0 0.0 0.00 0.03 0.00 71 1019.3
20260507031551 49 306 0.0 0.0 0.00 0.03 0.00 70 1019.3
20260507031052 49 306 0.0 0.0 0.00 0.03 0.00 69 1019.4
20260507030552 49 306 0.0 0.0 0.00 0.03 0.00 68 1019.4
20260507030052 49 306 0.0 0.0 0.00 0.03 0.00 67 1019.3
20260507025551 50 306 0.0 0.0 0.00 0.03 0.00 66 1019.3
20260507024551 50 306 0.0 0.0 0.00 0.03 0.00 64 1019.1
20260507024050 50 306 0.0 0.0 0.00 0.03 0.00 63 1018.9
20260507023546 51 306 0.0 0.0 0.00 0.03 0.00 64 1018.9
20260507023046 51 306 0.0 0.0 0.00 0.03 0.00 63 1018.9
20260507022541 51 306 0.0 0.0 0.00 0.03 0.00 63 1018.9
20260507022036 52 306 0.0 0.0 0.00 0.03 0.00 64 1018.9
20260507021530 53 306 0.0 0.0 0.00 0.03 0.00 62 1018.9
20260507021023 53 306 0.0 0.0 0.00 0.03 0.00 60 1018.9
20260507020517 53 306 0.0 0.0 0.00 0.03 0.00 59 1018.8
20260507020011 54 306 0.0 0.0 0.00 0.03 0.00 58 1018.7
20260507015504 54 306 0.0 0.0 0.00 0.03 0.00 56 1018.7
20260507014959 55 306 0.0 0.0 0.00 0.03 0.00 57 1018.7
20260507014453 55 306 0.0 0.0 0.00 0.03 0.00 53 1018.5
20260507013951 56 306 0.0 0.0 0.00 0.03 0.00 51 1018.5
20260507013451 56 306 0.0 0.0 0.00 0.03 0.00 49 1018.5
20260507012951 56 306 0.0 0.0 0.00 0.03 0.00 45 1018.4
20260507012451 57 306 0.0 0.0 0.00 0.03 0.00 43 1018.5
20260507011950 57 306 0.0 0.0 0.00 0.03 0.00 42 1018.4
20260507011451 57 306 0.0 0.0 0.00 0.03 0.00 42 1018.4
20260507010950 58 306 0.0 0.9 0.00 0.03 0.00 42 1018.4
20260507010451 58 306 0.0 0.9 0.00 0.03 0.00 42 1018.5
20260507004950 58 306 0.0 1.7 0.00 0.03 0.00 41 1018.5
20260507004450 58 306 0.0 1.7 0.00 0.03 0.00 40 1018.4
20260507003951 58 306 0.0 1.7 0.00 0.03 0.00 40 1018.5
20260507003451 59 306 0.9 2.6 0.00 0.03 0.00 40 1018.3
20260507002950 59 311 0.9 2.6 0.00 0.03 0.00 40 1018.3
20260507002451 59 297 0.9 2.6 0.00 0.03 0.00 40 1018.3
20260507001948 59 297 0.9 2.6 0.00 0.03 0.00 40 1018.4
20260507000949 59 296 0.9 2.6 0.00 0.03 0.00 41 1018.3
20260507000450 59 230 0.9 2.6 0.00 0.03 0.00 39 1018.3
20260506235949 59 308 0.9 4.3 0.00 0.03 0.00 40 1018.4
20260506235449 59 248 1.7 7.0 0.00 0.03 0.00 38 1018.4
20260506234953 59 296 0.9 7.0 0.00 0.03 0.00 39 1018.4
20260506234448 59 0 0.9 3.5 0.00 0.03 0.00 39 1018.4
20260506233945 59 5 0.9 3.5 0.00 0.03 0.00 39 1018.4
20260506233445 60 325 0.9 3.5 0.00 0.03 0.00 37 1018.5
20260506232944 60 321 0.9 3.5 0.00 0.03 0.00 39 1018.5
20260506232441 60 300 0.9 4.3 0.00 0.03 0.00 39 1018.5
20260506231939 59 202 0.9 4.3 0.00 0.03 0.00 37 1018.6
20260506230939 60 40 0.9 1.7 0.00 0.03 0.00 36 1018.6
20260506230436 60 296 0.9 2.6 0.00 0.03 0.00 37 1018.6
20260506225935 60 321 0.9 2.6 0.00 0.03 0.00 37 1018.7
20260506225434 60 327 0.9 3.5 0.00 0.03 0.00 38 1018.8
20260506224934 60 340 0.9 3.5 0.00 0.03 0.00 38 1018.6
20260506224429 60 298 0.9 2.6 0.00 0.03 0.00 40 1018.6
20260506223922 60 51 1.7 6.1 0.00 0.03 0.00 41 1018.6
20260506223416 60 298 2.6 7.8 0.00 0.03 0.00 38 1018.7
20260506222910 60 304 2.6 7.8 0.00 0.03 0.00 38 1018.7
20260506221859 60 318 0.9 3.5 0.00 0.03 0.00 40 1018.6
20260506221352 60 296 0.9 3.5 0.00 0.03 0.00 41 1018.6
20260506220847 61 69 1.7 6.1 0.00 0.03 0.00 37 1018.6
20260506220340 61 302 1.7 6.1 0.00 0.03 0.00 37 1018.7
20260506215835 61 351 0.9 6.1 0.00 0.03 0.00 37 1018.7
20260506215332 60 304 1.7 7.0 0.00 0.03 0.00 36 1018.7
20260506214822 61 301 2.6 7.0 0.00 0.03 0.00 36 1018.8
20260506214316 61 351 1.7 5.2 0.00 0.03 0.00 38 1018.8
20260506213811 62 313 1.7 7.8 0.00 0.03 0.00 36 1018.8
20260506213304 62 70 1.7 7.8 0.00 0.03 0.00 39 1018.9
20260506212758 62 278 0.9 3.5 0.00 0.03 0.00 38 1018.9
20260506212252 62 225 1.7 5.2 0.00 0.03 0.00 40 1019.0
20260506211239 61 5 2.6 8.7 0.00 0.03 0.00 37 1019.1
20260506210733 62 297 2.6 8.7 0.00 0.03 0.00 37 1019.2
20260506205722 62 268 2.6 9.6 0.00 0.03 0.00 41 1019.3
20260506205216 62 296 2.6 9.6 0.00 0.03 0.00 43 1019.4
20260506204204 62 345 1.7 6.1 0.00 0.03 0.00 37 1019.5
20260506203657 62 284 1.7 7.0 0.00 0.03 0.00 43 1019.4
20260506203152 61 309 2.6 7.0 0.00 0.03 0.00 37 1019.7
20260506202646 61 316 2.6 8.7 0.00 0.03 0.00 37 1019.9
20260506202140 62 321 1.7 8.7 0.00 0.03 0.00 40 1019.9
20260506201635 62 269 1.7 5.2 0.00 0.03 0.00 40 1020.0
20260506201127 61 304 1.7 4.3 0.00 0.03 0.00 41 1020.1
20260506200621 61 31 1.7 4.3 0.00 0.03 0.00 41 1020.2
20260506200116 61 277 1.7 3.5 0.00 0.03 0.00 44 1020.3
20260506195609 61 318 1.7 5.2 0.00 0.03 0.00 42 1020.3
20260506195104 61 269 1.7 7.8 0.00 0.03 0.00 38 1020.3
20260506194558 60 355 1.7 7.8 0.00 0.03 0.00 42 1020.2
20260506194053 60 296 1.7 5.2 0.00 0.03 0.00 45 1020.2
20260506193546 60 348 0.9 5.2 0.00 0.03 0.00 40 1020.2
20260506193041 59 326 1.7 6.1 0.00 0.03 0.00 45 1020.1
20260506192028 60 301 2.6 8.7 0.00 0.03 0.00 41 1020.1
20260506191522 60 284 1.7 8.7 0.00 0.03 0.00 41 1020.1
20260506191015 60 138 0.9 5.2 0.00 0.03 0.00 48 1020.1
20260506190005 60 192 1.7 5.2 0.00 0.03 0.00 41 1020.2
20260506185458 59 59 1.7 5.2 0.00 0.03 0.00 42 1020.2
20260506184952 59 326 2.6 10.4 0.00 0.03 0.00 41 1020.3
20260506184445 59 304 2.6 10.4 0.00 0.03 0.00 44 1020.4
20260506183939 59 306 2.6 7.8 0.00 0.03 0.00 43 1020.4
20260506183434 59 315 3.5 7.8 0.00 0.03 0.00 38 1020.4
20260506182422 59 312 2.6 8.7 0.00 0.03 0.00 45 1020.3
20260506181916 59 92 2.6 7.8 0.00 0.03 0.00 41 1020.4
20260506181410 59 283 1.7 7.0 0.00 0.03 0.00 44 1020.5